Regional Weather Roundup
Issued by NWS

Home | Current Version | Previous Version | Graphics & Text | Print | Product List | Glossary On
Versions: 1 2 3 4 5 6 7 8 9 10 11 12 13 14 15 16 17 18 19 20 21 22 23 24 25 26 27 28 29 30 31 32 33 34 35 36 37 38 39 40 41 42 43 44 45 46 47 48 49 50
000
ASUS43 KLSX 240407
RWRMO

WEATHER SUMMARY FOR MISSOURI
NATIONAL WEATHER SERVICE SPRINGFIELD MO
1100 PM CDT WED JUL 23 2014

NOTE: "FAIR" INDICATES FEW OR NO CLOUDS BELOW 12,000 FEET WITH NO
       SIGNIFICANT WEATHER AND/OR OBSTRUCTIONS TO VISIBILITY.
       CURRENT SKY AND/OR WEATHER CONDITIONS ARE NOT AVAILABLE FOR
       CHILLICOTHE AND FARMINGTON.

MOZ001>031-035>038-043-044-053-054-240500-
...NORTHERN AND WESTERN MISSOURI...

CITY           SKY/WX    TMP DP  RH WIND       PRES   REMARKS
KANSAS CTY INT CLEAR     74  63  68 NE7       30.14S
KANSAS C DTWN  CLEAR     76  62  62 E9        30.13R
LEE`S SUMMIT   CLEAR     74  63  68 E7        30.14R
ST JOSEPH      CLEAR     74  62  66 E8        30.14S
CHILLICOTHE      N/A     71  60  68 NE3       30.16R
KIRKSVILLE     CLEAR     67  57  70 E5        30.17S

$$
MOZ066>068-077>081-088>096-101>105-240500-
...SOUTHWEST MISSOURI...

CITY           SKY/WX    TMP DP  RH WIND       PRES   REMARKS
SPRINGFIELD    CLEAR     73  69  87 N3        30.09S
JOPLIN         CLEAR     73  67  81 N3        30.09S

$$
MOZ032>034-039>042-045>050-055>058-069>072-240500-
...CENTRAL MISSOURI...

CITY           SKY/WX    TMP DP  RH WIND       PRES   REMARKS
COLUMBIA       CLEAR     69  61  75 NE8       30.13R
JEFFERSON CITY CLEAR     74  61  63 NE8       30.11R
ROLLA          CLEAR     71  63  75 NE8       30.11R
SEDALIA        CLEAR     73  63  70 NE7       30.13R
WHITEMAN AFB   CLEAR     70  55  58 NE6       30.12R
OSAGE BEACH    CLEAR     73  63  68 NE7       30.11R

$$
MOZ051-052-059>065-240500-
...EAST CENTRAL MISSOURI...

CITY           SKY/WX    TMP DP  RH WIND       PRES   REMARKS
ST LOUIS INTL  CLEAR     73  59  61 NE6       30.12S
SPIRIT OF STL  CLEAR     68  60  75 E3        30.10S
ST CHARLES     CLEAR     65  61  87 NE6       30.11S

$$
MOZ072>076-082>087-097>100-106>115-240500-
...SOUTH CENTRAL AND SOUTHEAST MISSOURI...

CITY           SKY/WX    TMP DP  RH WIND       PRES   REMARKS
CAPE GIRARDEAU MOCLDY    75  67  76 N6        30.05S
FARMINGTON     CLEAR     72  63  73 NE7       30.12R
POPLAR BLUFF   CLOUDY    74  70  87 N3        30.04S
WEST PLAINS    CLEAR     69  66  90 NW3       30.09F

$$


USA.gov is the U.S. government's official web portal to all federal, state and local government web resources and services.